Regional Weather Roundup
Issued by NWS Little Rock, AR

Home | Current Version | Previous Version | Graphics & Text | Print | Product List | Glossary On
Versions: 1 2 3 4 5 6 7 8 9 10 11 12 13 14 15 16 17 18 19 20 21 22 23 24 25 26 27 28 29 30 31 32 33 34 35 36 37 38 39 40 41 42 43 44 45 46 47 48 49 50
000
ASUS44 KLZK 271705
RWRLZK

WEATHER ROUNDUP FOR ARKANSAS
NATIONAL WEATHER SERVICE LITTLE ROCK AR
1200 PM CDT THU AUG 27 2015

NOTE: "FAIR" INDICATES FEW OR NO CLOUDS BELOW 12,000 FEET WITH NO
SIGNIFICANT WEATHER AND/OR OBSTRUCTIONS TO VISIBILITY.

ARZ001-003-010-029-271800-
NORTHWEST ARKANSAS

CITY           SKY/WX    TMP DP  RH WIND       PRES   REMARKS
FAYETTEVILLE   CLOUDY    70  61  73 S7        30.18S
FORT SMITH     CLOUDY    73  61  65 NE3       30.16R
BENTONVILLE    CLOUDY    70  61  73 SW7       30.18R
ROGERS         CLOUDY    71  63  75 SE6       30.18R
SILOAM SPGS    CLOUDY    68  59  73 S6        30.16F
HIGHFILL       CLOUDY    69  64  84 S8        30.17R
SPRINGDALE     PTSUNNY   72  63  73 SW6       30.20R
$$

ARZ004-005-016-271800-
NORTH CENTRAL ARKANSAS

CITY           SKY/WX    TMP DP  RH WIND       PRES   REMARKS
BATESVILLE     SUNNY     79  57  47 NE3       30.15S
FLIPPIN        PTSUNNY   75  55  50 NE3       30.15F
MTN HOME       PTSUNNY   74  57  55 SE5       30.16F
$$

ARZ040-041-271800-
WEST CENTRAL ARKANSAS

CITY           SKY/WX    TMP DP  RH WIND       PRES   REMARKS
MENA           CLOUDY    81  59  47 CALM      30.16F
MOUNT IDA      PTSUNNY   79  58  48 CALM      30.13R
$$

ARZ009-017-025-026-028-271800-
NORTHEAST ARKANSAS

CITY           SKY/WX    TMP DP  RH WIND       PRES   REMARKS
JONESBORO      SUNNY     77  57  50 VRB5      30.15S
NEWPORT        SUNNY     78  61  55 CALM      30.16F
WALNUT RIDGE   SUNNY     77  59  53 NE5       30.16F
BLYTHEVILLE    SUNNY     81  58  45 E7        30.12F
$$

ARZ022-023-033-042-044-271800-
CENTRAL ARKANSAS

CITY           SKY/WX    TMP DP  RH WIND       PRES   REMARKS
LITTLE ROCK    MOSUNNY   80  56  43 CALM      30.13F
N LITTLE ROCK  SUNNY     80  60  50 NE7       30.13F
JACKSONVILLE   SUNNY     79  57  45 E7        30.13F
SEARCY         SUNNY     79  59  50 VRB7      30.15F
HOT SPRINGS    MOSUNNY   80  57  45 VRB7      30.14F
RUSSELLVILLE   PTSUNNY   78  59  51 VRB3      30.15R
$$

ARZ036-271800-
EAST ARKANSAS

CITY           SKY/WX    TMP DP  RH WIND       PRES   REMARKS
WEST MEMPHIS   MOSUNNY   79  59  50 E8        30.11S
$$

ARZ050-053-066-070-073-271800-
SOUTHWEST ARKANSAS

CITY           SKY/WX    TMP DP  RH WIND       PRES   REMARKS
ARKADELPHIA    FAIR      82  61  49 NW5       30.13F
CAMDEN         SUNNY     82  55  39 E3        30.12F
TEXARKANA      MOSUNNY   83  59  44 MISG      30.12S
EL DORADO      SUNNY     83  54  36 VRB6      30.12F
DE QUEEN       CLOUDY    79  60  52 VRB6      30.12S
$$

ARZ056-057-069-271800-
SOUTHEAST ARKANSAS

CITY           SKY/WX    TMP DP  RH WIND       PRES   REMARKS
PINE BLUFF     SUNNY     78  60  53 NE7       30.13F
STUTTGART      SUNNY     79  57  47 NE7       30.13F
MONTICELLO     SUNNY     81  59  47 N8        30.12S

$$




USA.gov is the U.S. government's official web portal to all federal, state and local government web resources and services.